Погода в Пенджикенте

Таджикистан     39°29′46″N   67°36′29″E
темп.,
°C
ветер,
м/с
пор.,
м/с
влажн.,
%
обл.,
%
осадки,
мм/ч
давл.,
гПа
погр.,
м
12 августа, пт
пт1223:00+19юв11370 0.0 101124
02:00+17в11400 0.0 101015
05:00+16вюв11430 0.0 101112
08:00+20ссз11330 0.0 1011284
11:00+26сз32230 0.0 1009966
14:00+29ссз64180 0.0 10071619
17:00+28с65190 0.0 10071433
20:00+23ссв24250 0.0 1008111
13 августа, сб
сб1323:00+20вюв11290 0.0 100916
02:00+18юв11320 0.0 100911
05:00+17всв11350 0.0 100911
08:00+22ссв01260 0.0 1009260
11:00+28сз43200 0.0 1007948
14:00+30ссз64180 0.0 10061558
17:00+30с54180 0.0 10051551
20:00+24с13240 0.0 100652
14 августа, вс
вс1423:00+22ююв22270 0.0 100617
02:00+21вюв22300 0.0 100511
05:00+20юв22320 0.0 100615
08:00+26св01230 0.0 1006238
11:00+30сз43180 0.0 10051112
14:00+32ссз54150 0.0 10042194
17:00+32ссз53160 0.0 10031798
20:00+25св22240 0.0 100422
15 августа, пн
пн1523:00+23вюв22270 0.0 100515
02:00+23вюв33270 0.0 100419
05:00+22юв33260 0.0 100519
08:00+27юв11190 0.0 1005226
11:00+32сз43150 0.0 10042213
14:00+34сз36120 0.0 10033196
17:00+34сз54121 0.0 10033195
20:00+26с12210 0.0 100529
16 августа, вт
вт1623:00+24ююв12250 0.0 100616
02:00+23вюв22250 0.0 100616
05:00+22вюв33270 0.0 100719
08:00+26в12200 0.0 1007299
11:00+31ссз42160 0.0 10061843
14:00+32ссз75150 0.0 10052539
17:00+31с54170 0.0 10061905
20:00+25св35230 0.0 100799